This demonstration page uses our WeatherBlox Daily Observations layout. Learn more.

Left ArrowRight Arrow

Hourly Observations for April 29, 2021

Temp ( °F °C ) Dew Point ( °F °C ) Humidity (%) Winds ( mph kmh ) Pressure ( in mb ) Visibility ( mi km ) Precip ( " mm )
12:53 am 00:53 Clear 62 16.7 59 15 90 90 Calm 30.01 1016 10 16 0.00 0.00
1:53 am 01:53 Clear 63 17.2 60 15.6 90 90 Calm 29.98 1015 10 16 0.00 0.00
2:53 am 02:53 Clear 64 17.8 60 15.6 87 87 Calm 29.97 1015 10 16 0.00 0.00
3:53 am 03:53 Clear 63 17.2 60 15.6 90 90 Calm 29.96 1015 10 16 0.00 0.00
4:53 am 04:53 Clear 61 16.1 58 14.4 90 90 Calm 29.94 1014 10 16 0.00 0.00
5:53 am 05:53 Clear 62 16.7 60 15.6 93 93 Calm 29.96 1015 10 16 0.00 0.00
6:53 am 06:53 Sunny 62 16.7 59 15 90 90 Calm 29.96 1015 10 16 0.00 0.00
7:53 am 07:53 Mostly Cloudy 63 17.2 61 16.1 93 93 Calm 29.98 1015 10 16 0.00 0.00
8:53 am 08:53 Sunny 67 19.4 62 16.7 84 84 SSW 6 9 30.01 1016 10 16 0.00 0.00
9:53 am 09:53 Sunny 71 21.7 61 16.1 71 71 SSW 8 13 30.00 1016 10 16 0.00 0.00
10:53 am 10:53 Sunny 73 22.8 58 14.4 59 59 SW 13 20 30.01 1016 10 16 0.00 0.00
11:53 am 11:53 Sunny 74 23.3 60 15.6 62 62 SW 10 17 30.04 1017 10 16 0.00 0.00
12:53 pm 12:53 Mostly Sunny 77 25 59 15 54 54 WSW 12 19 30.04 1017 10 16 0.00 0.00
1:53 pm 13:53 Partly Cloudy 77 25 60 15.6 56 56 WNW 10 17 30.02 1017 10 16 0.00 0.00
2:53 pm 14:53 Mostly Cloudy 78 25.6 60 15.6 54 54 WSW 9 15 30.00 1016 10 16 0.00 0.00
3:53 pm 15:53 Mostly Cloudy 76 24.4 61 16.1 60 60 SW 9 15 29.99 1016 10 16 0.00 0.00
4:53 pm 16:53 Mostly Sunny 77 25 62 16.7 60 60 SSW 13 20 29.97 1015 10 16 0.00 0.00
5:53 pm 17:53 Mostly Sunny 76 24.4 62 16.7 62 62 WSW 10 17 29.96 1015 10 16 0.00 0.00
6:53 pm 18:53 Partly Cloudy 76 24.4 62 16.7 62 62 WSW 10 17 29.96 1015 10 16 0.00 0.00
7:53 pm 19:53 Sunny 75 23.9 63 17.2 66 66 WSW 7 11 29.96 1014 10 16 0.00 0.00
8:53 pm 20:53 Clear 73 22.8 63 17.2 71 71 SSW 8 13 29.94 1014 10 16 0.00 0.00
9:53 pm 21:53 Clear 72 22.2 64 17.8 76 76 WSW 7 11 29.96 1015 10 16 0.00 0.00
10:53 pm 22:53 Mostly Clear 71 21.7 64 17.8 79 79 SW 10 17 29.97 1015 10 16 0.00 0.00
11:53 pm 23:53 Cloudy with Rain 69 20.6 65 18.3 87 87 WSW 8 13 30.00 1016 3 5 0.07 1.78

Powered by AerisWeather